Temperature
19 19 19 19 18 18 18 18 18 18 18 17 17 17 17 17 17 17 17 17 17 17 17 17 17 17 17 17 17 17 17 16 16 16 17 17 16 16 16 16 16 16 16
19 19 19 19 18 18 18 18 18 18 18 18 18 17 17 17 17 17 17 17 17 17 17 17 17 17 17 16 16 16 16 16 16 16 16 16 16 16 16 16 16 16 16
19 19 19 19 18 18 18 18 18 18 18 18 18 17 17 17 17 17 17 17 17 17 17 17 17 17 17 16 16 16 16 16 16 16 16 16 16 16 16 16 16 16 16
19 19 19 18 18 18 18 18 18 18 18 18 18 18 17 17 17 17 17 17 17 17 17 17 17 17 16 16 16 16 16 16 16 16 16 16 16 16 16 16 16 16 16
19 19 19 18 18 18 18 18 18 18 18 18 18 18 17 17 17 17 17 17 17 17 17 17 17 17 17 16 16 16 16 16 16 16 16 16 16 16 16 16 16 16 16
19 19 18 18 18 18 18 18 18 18 18 18 18 18 18 18 18 18 18 18 17 17 17 17 17 17 17 16 16 16 16 16 16 16 16 16 16 16 16 16 16 16 16
19 19 18 18 18 18 18 18 18 18 18 17 18 18 18 18 18 18 18 18 17 17 17 17 17 17 17 17 16 16 16 16 16 16 16 16 16 16 16 16 16 16 16
18 18 18 18 18 18 18 18 18 18 18 17 17 17 17 18 18 18 18 18 18 17 17 17 17 17 17 16 16 16 16 16 16 16 16 16 16 16 16 16 16 16 16
18 18 18 18 18 18 18 18 18 18 17 17 17 17 17 17 17 18 18 18 18 17 17 17 17 17 17 17 17 17 16 16 16 16 16 16 16 16 16 16 16 16 16
18 18 18 18 18 18 18 18 18 17 17 17 17 17 17 17 17 17 17 17 17 17 17 17 17 17 17 17 17 17 17 17 16 16 16 16 16 16 16 16 16 16 16
18 18 18 18 18 18 18 17 17 17 17 17 17 17 17 17 17 17 17 17 17 17 17 17 17 17 17 17 17 17 17 16 16 16 16 16 16 16 16 16 16 16 16
18 18 18 18 18 18 18 17 17 17 17 17 17 17 17 17 17 17 16 17 17 17 17 17 17 17 17 17 17 17 17 16 16 16 16 16 16 16 16 16 16 16 16
18 18 18 18 18 18 17 17 17 17 17 17 17 17 17 17 17 17 17 16 16 17 17 17 17 17 17 17 17 17 16 16 16 16 16 16 16 16 16 15 15 15 15
18 18 18 18 18 17 17 17 17 17 17 17 17 17 17 17 17 17 16 16 16 16 16 17 17 17 17 17 17 16 16 16 16 16 16 16 16 16 15 15 15 15 15
18 18 18 17 17 17 17 17 17 17 17 17 17 17 17 17 17 17 16 16 16 16 16 16 16 16 16 16 16 16 16 16 16 16 16 16 16 16 15 15 15 15 15
18 18 18 17 17 17 17 17 17 17 17 17 17 17 17 17 16 16 16 16 16 16 15 16 16 16 16 16 16 16 16 16 16 16 15 15 15 15 15 15 15 15 15
18 18 17 17 17 17 17 17 17 17 17 17 16 16 16 16 16 16 16 16 16 16 16 16 16 16 16 16 16 15 15 15 15 15 15 15 15 15 15 15 15 15 15
17 17 17 17 17 17 17 17 17 17 16 16 16 16 16 16 16 16 16 16 16 16 15 15 16 15 15 15 15 15 15 15 15 15 15 15 15 15 15 15 15 15 15
17 17 17 17 17 17 17 17 16 16 16 16 16 16 16 16 16 16 16 16 16 15 15 15 15 15 15 15 15 15 15 15 15 15 15 15 14 14 14 14 14 14 14
17 17 17 17 17 16 16 16 16 16 16 16 16 15 15 15 15 15 15 15 15 15 15 15 15 15 15 15 14 14 14 14 14 14 14 14 14 14 14 14 14 14 14
17 17 17 16 16 16 16 16 16 16 15 15 15 15 15 15 15 15 15 15 15 15 15 15 15 14 14 14 14 14 14 14 14 14 14 14 14 14 14 14 14 14 14
17 17 16 16 16 16 16 16 15 15 15 15 15 15 15 15 15 15 15 15 15 14 14 14 14 14 14 14 14 14 14 14 13 14 13 13 13 13 13 13 13 13 13
17 16 16 16 16 16 15 15 15 15 15 15 15 15 15 15 15 15 15 15 15 14 14 14 14 14 14 14 13 13 13 13 13 13 13 13 13 13 13 13 13 13 13
16 16 16 16 16 16 15 15 15 15 15 15 15 15 15 14 14 14 14 14 14 14 14 14 14 14 13 13 13 13 13 13 13 13 12 12 12 12 12 12 12 12 12
16 16 16 16 16 15 15 15 15 15 15 14 14 14 14 14 14 14 14 14 14 14 14 13 13 13 13 13 13 12 12 12 12 12 12 12 12 12 12 12 12 12 12
16 15 15 15 15 15 15 15 15 14 14 14 14 14 14 14 14 13 13 13 13 13 13 13 13 13 13 13 12 12 12 12 12 12 12 12 12 11 11 12 12 12 11
Wind_Speed
2 1 1 1 2 2 2 1 2 2 2 1 1 2 1 2 2 3 4 5 6 6 6 6 6 7 7 7 8 8 8 8 8 8 8 8 8 9 9 10 10 11 11
2 2 1 1 1 1 2 2 1 1 1 0 0 1 2 2 2 3 4 4 5 6 6 6 6 6 7 7 8 9 9 9 9 9 9 9 9 9 9 9 10 11 11
3 2 1 1 1 2 2 2 1 1 1 0 0 1 1 2 2 3 3 3 4 5 6 7 7 7 7 7 8 9 9 9 9 9 9 9 10 10 10 10 10 11 11
4 3 2 1 1 2 2 1 1 1 0 0 1 1 1 1 2 3 4 4 4 4 4 6 7 7 7 8 8 9 9 9 9 9 9 10 10 10 10 10 11 11 11
3 3 2 1 2 2 1 1 1 0 0 0 1 1 1 2 2 3 3 4 4 4 4 4 5 6 7 8 8 9 9 10 10 10 10 11 11 11 11 11 11 11 12
3 3 2 1 2 1 1 1 1 1 0 1 1 2 2 2 2 2 3 2 2 3 3 3 3 5 7 8 8 9 9 10 10 11 11 12 12 12 12 12 12 12 12
3 3 2 1 1 1 1 1 1 1 0 0 1 2 2 1 1 2 2 2 2 3 4 4 4 4 5 6 7 8 7 8 9 11 11 12 12 13 13 13 13 13 13
3 3 2 2 1 1 1 1 1 1 0 1 1 1 2 3 2 1 1 2 2 2 3 4 4 4 5 5 6 8 8 8 7 9 10 9 11 12 14 14 14 14 14
2 2 3 2 2 2 2 2 2 2 1 0 1 2 1 1 2 2 1 2 2 2 2 3 4 4 5 5 6 7 8 8 8 8 9 9 10 10 11 12 14 14 14
1 2 2 2 2 2 2 2 2 2 2 1 1 1 2 2 1 2 2 2 2 2 3 3 3 4 4 5 6 7 8 8 8 8 9 8 9 10 11 12 12 12 12
1 1 2 2 2 2 2 2 2 2 2 2 1 1 1 1 1 2 3 3 3 2 3 3 3 3 4 5 5 6 7 7 7 7 7 7 7 8 9 9 10 11 11
1 1 1 2 2 2 2 2 2 2 2 2 2 2 2 2 2 2 3 3 3 3 2 2 2 3 3 4 5 5 6 6 7 6 5 6 6 7 7 7 8 9 10
1 2 1 1 2 2 2 2 2 2 3 3 3 2 3 3 2 2 2 2 2 3 2 2 2 2 3 3 4 5 5 5 5 5 5 5 6 7 7 6 7 9 9
2 2 1 2 2 2 2 2 2 2 2 2 3 3 2 3 3 3 2 2 2 2 2 3 2 2 2 3 3 4 3 4 5 5 5 5 5 6 6 6 7 6 7
2 1 1 2 2 1 1 1 1 2 2 2 2 2 2 2 2 2 2 3 3 3 3 3 2 2 3 2 3 2 2 3 3 4 5 6 6 6 6 6 5 5 6
1 1 1 1 1 1 1 1 2 2 1 2 1 1 2 2 2 2 2 2 3 3 3 2 2 3 3 2 3 2 2 3 3 3 4 5 5 6 5 5 5 5 6
1 1 1 1 1 1 1 1 2 2 2 2 2 1 2 2 1 1 1 1 2 2 3 3 2 3 2 3 3 2 2 2 2 3 3 4 5 5 5 5 4 5 6
1 1 1 1 1 1 1 2 2 2 2 3 3 2 3 2 1 2 2 2 2 2 3 4 3 3 2 3 3 2 2 2 2 2 2 3 4 5 4 4 4 4 5
1 1 0 0 1 2 2 2 2 2 2 3 3 3 3 2 2 2 2 2 2 2 2 3 3 3 3 2 2 3 3 2 2 2 1 2 3 3 3 4 4 4 4
2 1 1 1 2 2 2 2 2 2 3 3 3 3 4 4 4 4 3 3 2 2 1 2 3 3 3 2 1 2 3 3 2 2 2 1 1 1 2 2 4 4 4
2 2 1 2 2 2 2 2 3 3 3 3 3 4 4 4 4 4 3 3 2 2 1 2 2 3 3 2 2 2 3 3 3 2 1 2 1 1 1 1 3 3 4
2 2 2 2 2 2 3 3 3 3 3 3 4 4 4 3 4 3 3 4 4 3 3 3 3 4 4 3 3 3 2 2 3 1 1 2 1 1 2 1 2 3 4
2 2 2 2 3 4 4 3 4 3 2 3 3 3 3 2 2 1 1 2 2 2 3 3 4 4 4 3 3 3 3 3 4 3 1 3 2 2 2 2 3 4 4
2 3 3 3 3 4 4 4 3 2 2 3 3 2 2 2 2 1 1 2 2 3 2 2 2 3 3 3 3 3 3 2 2 1 1 2 3 3 3 2 2 4 5
3 3 3 3 3 4 4 3 2 1 2 3 2 2 1 2 2 2 1 1 2 3 2 1 0 1 1 1 1 0 1 1 2 2 1 1 2 3 3 3 2 2 3
4 3 3 2 3 3 3 3 2 1 1 2 2 2 1 1 2 2 1 1 2 3 2 2 3 3 2 1 1 2 3 2 2 2 1 1 2 1 2 2 2 1 2
Wind_Direction
112 112 114 109 108 111 107 96 97 110 126 143 170 169 172 185 211 229 238 243 241 233 235 233 228 223 218 212 209 209 210 212 212 216 217 213 212 213 211 211 209 207 206
145 133 117 101 103 112 111 110 114 124 142 150 202 189 199 212 218 234 240 245 244 239 244 240 237 230 225 221 219 220 223 223 219 218 216 217 215 215 214 212 210 210 209
149 142 127 101 95 107 101 83 75 87 99 118 205 238 217 224 220 236 250 255 254 246 246 246 242 236 234 232 231 228 231 229 225 221 218 217 215 215 215 216 214 212 210
150 140 132 122 98 99 96 79 45 46 67 67 279 271 245 236 236 243 251 253 249 245 248 248 247 242 243 243 241 240 237 234 231 230 226 221 215 217 217 217 219 217 212
150 141 135 118 103 97 90 86 68 54 136 287 277 267 255 243 242 242 245 249 244 242 242 249 249 249 250 250 250 248 243 235 233 233 230 224 219 220 221 221 220 220 218
137 136 130 115 106 103 81 71 77 63 259 260 294 308 291 257 245 245 252 255 251 246 242 248 251 249 247 250 253 255 252 241 237 236 234 228 225 223 225 225 222 221 220
142 140 143 126 127 160 192 165 131 97 353 136 49 343 335 315 257 254 254 253 264 257 250 246 244 241 242 250 253 256 257 251 244 239 238 234 229 226 226 226 225 223 222
164 166 162 166 168 185 218 200 147 148 255 106 119 49 341 343 352 303 274 256 267 268 263 255 246 238 240 240 248 252 252 254 251 244 242 237 230 226 228 227 226 222 222
167 172 167 172 183 187 214 223 198 182 213 252 182 158 159 274 318 327 303 285 287 274 270 262 257 249 245 243 247 249 247 248 248 250 246 240 231 226 225 227 227 223 222
171 176 166 173 188 189 208 225 201 193 183 226 244 211 199 188 214 313 320 309 299 284 279 277 270 258 253 254 254 256 253 250 250 252 248 239 232 230 227 229 228 223 222
227 197 185 180 193 205 213 213 187 188 191 199 207 203 191 192 202 216 286 312 320 297 284 280 278 272 264 262 261 261 257 255 255 254 246 239 234 232 230 231 228 223 220
296 265 203 193 204 210 216 217 207 202 210 206 207 205 191 193 205 205 235 271 295 299 304 290 280 276 274 266 262 260 258 256 251 248 241 233 231 232 234 237 236 231 227
281 272 251 221 222 222 215 203 205 219 219 215 218 227 221 222 206 197 214 250 281 301 311 295 276 280 279 270 267 260 256 252 247 241 236 230 227 227 227 232 238 234 233
252 260 239 237 243 230 219 196 216 234 229 232 240 233 234 239 213 199 198 209 275 305 306 290 295 286 290 283 277 265 265 253 243 237 235 229 225 224 224 221 226 229 229
245 249 242 251 257 238 219 199 230 246 243 246 250 245 249 260 236 215 207 202 209 268 293 292 296 299 307 301 297 291 276 272 256 234 230 225 220 217 219 220 217 220 218
241 244 256 260 271 262 222 212 239 251 246 267 254 245 253 263 251 228 216 214 209 222 262 283 281 298 306 315 323 312 298 302 278 243 229 224 219 215 215 217 218 218 208
233 249 257 268 277 275 243 217 238 240 243 271 274 246 258 241 239 243 219 206 209 206 244 285 286 303 302 307 316 319 319 326 320 274 235 225 218 213 209 210 212 205 197
243 241 249 279 285 282 257 230 248 251 244 256 261 252 268 261 242 246 229 230 231 219 221 268 294 306 292 285 296 301 318 319 309 302 249 234 221 213 209 208 208 200 190
226 214 176 262 292 287 270 257 246 250 249 254 253 243 252 248 253 250 243 249 250 242 228 244 281 294 301 304 309 313 313 313 306 312 280 248 226 212 210 206 202 195 190
203 211 222 237 265 279 273 269 258 255 259 264 258 247 249 243 246 243 246 250 244 242 243 248 281 295 297 298 288 306 314 320 304 320 333 345 332 209 212 206 201 196 190
224 228 241 266 276 265 266 270 264 259 259 269 269 261 256 254 254 244 247 248 239 238 248 264 279 292 295 294 279 278 287 301 302 303 307 318 330 338 292 231 215 205 202
249 240 244 260 286 292 289 261 248 255 255 256 269 278 273 267 277 277 263 248 235 235 243 251 269 270 277 278 280 271 274 291 290 301 278 291 282 280 281 252 220 206 210
241 250 250 253 274 280 277 266 246 242 248 256 271 286 290 294 283 289 331 348 323 294 232 232 252 264 268 263 262 272 267 270 269 282 281 284 288 276 274 263 229 217 217
233 240 248 254 268 285 286 277 268 249 257 262 267 272 277 296 302 334 360 358 350 337 307 249 240 260 267 259 239 244 255 280 289 301 269 271 288 284 287 283 256 226 221
241 248 248 250 263 286 290 283 277 258 268 284 292 292 276 289 318 3 46 356 338 332 350 1 12 349 339 302 237 236 268 260 298 302 297 258 274 283 287 283 284 250 224
234 248 256 251 249 274 290 281 260 236 270 290 300 303 301 311 338 2 1 244 282 302 333 2 17 18 10 4 299 225 213 222 262 278 275 242 259 279 280 278 290 310 289
Height
1531 1531 1532 1532 1533 1533 1533 1534 1535 1536 1536 1537 1537 1538 1538 1539 1539 1539 1540 1540 1540 1540 1540 1541 1541 1541 1541 1541 1542 1543 1544 1545 1546 1547 1548 1549 1550 1551 1552 1553 1554 1555 1556
1532 1532 1532 1533 1533 1534 1534 1535 1535 1536 1536 1536 1537 1537 1538 1538 1538 1539 1539 1539 1539 1539 1539 1540 1540 1540 1540 1540 1541 1542 1542 1543 1544 1544 1545 1546 1547 1548 1549 1551 1552 1553 1554
1533 1533 1533 1534 1534 1535 1535 1535 1535 1535 1536 1536 1536 1537 1537 1537 1538 1538 1538 1538 1538 1538 1538 1538 1539 1539 1539 1540 1540 1540 1541 1541 1542 1542 1543 1543 1544 1546 1547 1548 1549 1551 1552
1534 1534 1534 1534 1535 1535 1535 1535 1535 1535 1535 1536 1536 1536 1537 1537 1537 1537 1537 1537 1537 1537 1537 1537 1537 1537 1538 1538 1538 1538 1539 1539 1539 1540 1540 1540 1541 1542 1544 1545 1547 1548 1549
1534 1534 1534 1535 1535 1535 1535 1535 1536 1536 1535 1536 1536 1536 1536 1536 1536 1536 1536 1536 1536 1536 1536 1536 1536 1536 1536 1536 1536 1536 1536 1536 1536 1537 1537 1537 1538 1539 1541 1542 1544 1545 1546
1534 1534 1535 1535 1535 1535 1535 1535 1536 1536 1535 1535 1535 1535 1535 1535 1535 1535 1535 1534 1534 1534 1534 1534 1534 1534 1534 1534 1534 1534 1534 1534 1533 1534 1534 1535 1535 1537 1538 1539 1540 1542 1543
1534 1534 1534 1534 1535 1535 1535 1535 1535 1535 1535 1534 1534 1534 1534 1534 1534 1533 1533 1533 1533 1533 1533 1533 1533 1533 1532 1532 1532 1531 1531 1531 1531 1531 1531 1532 1532 1533 1534 1535 1537 1538 1540
1533 1533 1534 1534 1534 1534 1534 1534 1534 1534 1534 1534 1534 1533 1532 1533 1532 1532 1532 1532 1532 1531 1531 1531 1531 1531 1531 1530 1530 1529 1529 1529 1528 1528 1528 1529 1529 1530 1531 1532 1533 1535 1536
1532 1533 1533 1533 1533 1533 1533 1533 1533 1533 1533 1533 1533 1533 1532 1531 1531 1531 1531 1531 1530 1530 1530 1530 1529 1529 1529 1528 1528 1528 1527 1526 1526 1526 1526 1526 1526 1527 1528 1529 1530 1531 1532
1532 1532 1532 1532 1532 1532 1532 1532 1532 1532 1532 1532 1532 1531 1532 1531 1531 1530 1530 1530 1529 1529 1528 1528 1528 1527 1527 1526 1526 1525 1525 1524 1524 1523 1523 1523 1524 1524 1525 1526 1526 1528 1529
1530 1530 1531 1531 1531 1531 1531 1531 1531 1530 1530 1530 1530 1530 1530 1530 1529 1529 1528 1528 1527 1527 1527 1526 1526 1525 1525 1524 1523 1523 1522 1522 1521 1521 1521 1521 1521 1521 1522 1522 1524 1525 1526
1529 1529 1529 1529 1529 1530 1530 1529 1529 1529 1529 1529 1529 1528 1528 1528 1527 1527 1526 1525 1525 1525 1525 1524 1524 1523 1522 1522 1521 1521 1520 1519 1519 1518 1518 1518 1518 1518 1519 1519 1520 1521 1522
1527 1528 1528 1528 1528 1528 1528 1528 1527 1527 1527 1527 1527 1526 1526 1525 1525 1525 1524 1523 1523 1522 1522 1522 1521 1521 1520 1520 1519 1518 1518 1517 1516 1516 1516 1515 1515 1516 1516 1517 1517 1518 1519
1526 1526 1526 1526 1526 1526 1526 1526 1526 1525 1525 1525 1524 1524 1523 1523 1523 1522 1522 1522 1521 1520 1519 1519 1519 1519 1518 1517 1517 1516 1515 1514 1514 1513 1513 1513 1513 1513 1513 1514 1514 1514 1515
1525 1525 1525 1524 1524 1524 1524 1524 1523 1523 1523 1522 1522 1522 1521 1521 1520 1520 1520 1520 1520 1518 1516 1516 1516 1516 1515 1515 1514 1513 1512 1512 1511 1510 1510 1510 1510 1510 1510 1510 1511 1511 1511
1523 1523 1523 1523 1523 1522 1522 1522 1521 1521 1520 1520 1520 1519 1519 1518 1518 1517 1517 1517 1517 1516 1514 1513 1514 1513 1513 1512 1512 1511 1510 1509 1508 1508 1507 1507 1507 1507 1507 1507 1507 1507 1508
1522 1522 1522 1521 1521 1520 1520 1519 1519 1518 1518 1517 1517 1517 1516 1516 1515 1515 1515 1514 1514 1513 1512 1511 1511 1511 1510 1510 1509 1508 1508 1507 1506 1505 1505 1504 1504 1504 1504 1504 1504 1504 1505
1520 1520 1519 1519 1519 1518 1517 1517 1516 1516 1515 1514 1514 1514 1513 1513 1513 1512 1512 1511 1511 1510 1510 1508 1507 1507 1507 1507 1506 1506 1505 1504 1503 1503 1502 1502 1501 1501 1502 1502 1501 1502 1502
1518 1518 1517 1517 1516 1516 1516 1515 1514 1513 1512 1512 1511 1511 1510 1510 1509 1509 1509 1508 1508 1507 1507 1506 1504 1504 1504 1504 1503 1502 1502 1501 1501 1500 1499 1499 1499 1499 1499 1499 1499 1499 1500
1516 1516 1515 1515 1514 1514 1513 1513 1512 1510 1509 1509 1508 1508 1507 1507 1506 1506 1505 1505 1505 1504 1504 1503 1502 1501 1500 1500 1500 1499 1498 1498 1498 1498 1497 1497 1496 1496 1496 1496 1496 1496 1497
1514 1513 1513 1512 1512 1511 1510 1510 1509 1508 1507 1505 1505 1504 1504 1503 1503 1503 1502 1502 1501 1501 1500 1500 1498 1498 1497 1497 1496 1496 1495 1495 1494 1495 1494 1494 1494 1494 1493 1494 1494 1494 1495
1511 1511 1510 1510 1509 1508 1508 1507 1506 1505 1504 1503 1502 1501 1500 1499 1499 1499 1499 1498 1498 1498 1497 1496 1495 1494 1494 1494 1493 1493 1492 1491 1491 1492 1492 1491 1491 1491 1491 1491 1491 1492 1492
1508 1508 1507 1507 1506 1505 1505 1504 1503 1502 1501 1500 1499 1497 1496 1496 1495 1495 1495 1495 1495 1494 1494 1494 1492 1491 1491 1491 1490 1489 1489 1489 1488 1488 1489 1488 1488 1488 1488 1488 1489 1489 1489
1505 1504 1504 1503 1503 1502 1502 1501 1501 1499 1498 1497 1496 1495 1493 1493 1492 1492 1491 1491 1491 1491 1491 1490 1490 1489 1488 1488 1488 1487 1486 1486 1486 1486 1486 1485 1485 1485 1485 1486 1486 1486 1486
1501 1501 1500 1500 1499 1499 1499 1498 1497 1496 1494 1493 1493 1492 1491 1490 1489 1489 1488 1487 1487 1488 1488 1487 1486 1486 1485 1485 1484 1484 1483 1483 1483 1483 1483 1483 1482 1482 1482 1482 1483 1483 1483
1498 1498 1497 1497 1496 1496 1496 1495 1494 1492 1491 1490 1489 1488 1488 1487 1486 1486 1485 1485 1484 1484 1484 1483 1483 1482 1482 1481 1481 1480 1480 1480 1480 1480 1479 1480 1479 1479 1479 1479 1479 1479 1480